Time,TemperatureF,DewpointF,PressureIn,WindDirection,WindDirectionDegrees,WindSpeedMPH,WindSpeedGustMPH,Humidity,HourlyPrecipIn,Conditions,Clouds,dailyrainin,SoftwareType,DateUTC
2013-07-18 00:02:00,94.7,46.0,29.79,ESE,110,0.0,0.0,19,0.00,,,0.00,Wunderground v.1.15,2013-07-18 07:02:00,
2013-07-18 00:07:00,94.9,46.2,29.79,East,100,0.0,1.0,19,0.00,,,0.00,Wunderground v.1.15,2013-07-18 07:07:00,
2013-07-18 00:12:00,94.8,46.1,29.79,East,101,0.0,1.0,19,0.00,,,0.00,Wunderground v.1.15,2013-07-18 07:12:00,
2013-07-18 00:17:00,94.5,45.9,29.78,NNE,30,0.0,1.0,19,0.00,,,0.00,Wunderground v.1.15,2013-07-18 07:17:00,
2013-07-18 00:22:00,94.1,45.5,29.78,NNE,30,0.0,0.0,19,0.00,,,0.00,Wunderground v.1.15,2013-07-18 07:22:00,
2013-07-18 00:27:00,93.8,45.3,29.78,NNE,30,0.0,0.0,19,0.00,,,0.00,Wunderground v.1.15,2013-07-18 07:27:00,
2013-07-18 00:33:00,93.6,46.5,29.78,NNE,29,0.0,0.0,20,0.00,,,0.00,Wunderground v.1.15,2013-07-18 07:33:00,
2013-07-18 00:38:00,93.5,46.4,29.78,NNE,30,0.0,0.0,20,0.00,,,0.00,Wunderground v.1.15,2013-07-18 07:38:00,
2013-07-18 00:43:00,93.4,46.3,29.78,NNE,30,0.0,0.0,20,0.00,,,0.00,Wunderground v.1.15,2013-07-18 07:43:00,
2013-07-18 00:48:00,93.3,46.2,29.78,NNE,27,0.0,0.0,20,0.00,,,0.00,Wunderground v.1.15,2013-07-18 07:48:00,
2013-07-18 00:53:00,93.4,47.6,29.78,NW,309,0.0,0.0,21,0.00,,,0.00,Wunderground v.1.15,2013-07-18 07:53:00,
2013-07-18 00:59:00,93.4,47.6,29.78,NW,309,0.0,0.0,21,0.00,,,0.00,Wunderground v.1.15,2013-07-18 07:59:00,
2013-07-18 01:04:00,93.3,47.5,29.78,NW,311,0.0,0.0,21,0.00,,,0.00,Wunderground v.1.15,2013-07-18 08:04:00,
2013-07-18 01:09:00,93.4,47.6,29.78,West,265,0.0,0.0,21,0.00,,,0.00,Wunderground v.1.15,2013-07-18 08:09:00,
2013-07-18 01:14:00,93.4,46.3,29.78,West,264,0.0,0.0,20,0.00,,,0.00,Wunderground v.1.15,2013-07-18 08:14:00,
2013-07-18 01:19:00,93.4,46.3,29.77,West,277,0.0,0.0,20,0.00,,,0.00,Wunderground v.1.15,2013-07-18 08:19:00,
2013-07-18 01:24:00,93.2,46.2,29.77,WNW,291,0.0,0.0,20,0.00,,,0.00,Wunderground v.1.15,2013-07-18 08:24:00,
2013-07-18 01:29:00,93.0,44.6,29.77,WNW,291,0.0,0.0,19,0.00,,,0.00,Wunderground v.1.15,2013-07-18 08:29:00,
2013-07-18 01:34:00,92.7,44.4,29.77,WNW,290,0.0,0.0,19,0.00,,,0.00,Wunderground v.1.15,2013-07-18 08:34:00,
2013-07-18 01:39:00,92.5,42.8,29.77,WNW,291,0.0,0.0,18,0.00,,,0.00,Wunderground v.1.15,2013-07-18 08:39:00,
2013-07-18 01:44:00,92.5,42.8,29.77,WNW,290,0.0,0.0,18,0.00,,,0.00,Wunderground v.1.15,2013-07-18 08:44:00,
2013-07-18 01:50:00,91.6,51.9,29.77,NW,310,1.0,1.0,26,0.00,,,0.00,Wunderground v.1.15,2013-07-18 08:50:00,
2013-07-18 01:55:00,89.8,53.3,29.77,North,356,0.0,1.0,29,0.00,,,0.00,Wunderground v.1.15,2013-07-18 08:55:00,
2013-07-18 02:00:00,89.0,48.6,29.77,North,356,0.0,0.0,25,0.00,,,0.00,Wunderground v.1.15,2013-07-18 09:00:00,
2013-07-18 02:05:00,88.8,45.0,29.77,North,356,0.0,0.0,22,0.00,,,0.00,Wunderground v.1.15,2013-07-18 09:05:00,
2013-07-18 02:10:00,89.1,45.3,29.77,North,3,0.0,0.0,22,0.00,,,0.00,Wunderground v.1.15,2013-07-18 09:10:00,
2013-07-18 02:15:00,89.2,45.4,29.77,North,359,0.0,0.0,22,0.00,,,0.00,Wunderground v.1.15,2013-07-18 09:15:00,
2013-07-18 02:20:00,89.4,40.3,29.77,North,359,0.0,0.0,18,0.00,,,0.00,Wunderground v.1.15,2013-07-18 09:20:00,
2013-07-18 02:25:00,90.6,39.8,29.77,East,101,0.0,1.0,17,0.00,,,0.00,Wunderground v.1.15,2013-07-18 09:25:00,
2013-07-18 02:30:00,91.4,40.5,29.77,ESE,108,0.0,0.0,17,0.00,,,0.00,Wunderground v.1.15,2013-07-18 09:30:00,
2013-07-18 02:35:00,90.7,61.6,29.77,WNW,282,0.0,1.0,38,0.00,,,0.00,Wunderground v.1.15,2013-07-18 09:35:00,
2013-07-18 02:40:00,87.6,54.1,29.76,NW,307,0.0,0.0,32,0.00,,,0.00,Wunderground v.1.15,2013-07-18 09:40:00,
2013-07-18 02:46:00,87.0,49.0,29.76,WNW,295,0.0,0.0,27,0.00,,,0.00,Wunderground v.1.15,2013-07-18 09:46:00,
2013-07-18 02:51:00,87.3,48.2,29.76,WNW,295,0.0,0.0,26,0.00,,,0.00,Wunderground v.1.15,2013-07-18 09:51:00,
2013-07-18 02:56:00,87.9,46.6,29.76,WNW,295,0.0,0.0,24,0.00,,,0.00,Wunderground v.1.15,2013-07-18 09:56:00,
2013-07-18 03:01:00,88.4,40.9,29.76,West,274,0.0,0.0,19,0.00,,,0.00,Wunderground v.1.15,2013-07-18 10:01:00,
2013-07-18 03:06:00,88.6,39.7,29.76,West,271,0.0,0.0,18,0.00,,,0.00,Wunderground v.1.15,2013-07-18 10:06:00,
2013-07-18 03:11:00,89.1,38.6,29.76,West,271,0.0,0.0,17,0.00,,,0.00,Wunderground v.1.15,2013-07-18 10:11:00,
2013-07-18 03:16:00,90.1,40.9,29.76,NW,310,0.0,0.0,18,0.00,,,0.00,Wunderground v.1.15,2013-07-18 10:16:00,
2013-07-18 03:21:00,90.1,40.9,29.76,West,280,0.0,0.0,18,0.00,,,0.00,Wunderground v.1.15,2013-07-18 10:21:00,
2013-07-18 03:26:00,87.5,53.1,29.76,West,280,0.0,1.0,31,0.00,,,0.00,Wunderground v.1.15,2013-07-18 10:26:00,
2013-07-18 03:31:00,86.4,52.2,29.76,West,280,0.0,0.0,31,0.00,,,0.00,Wunderground v.1.15,2013-07-18 10:31:00,
2013-07-18 03:36:00,86.0,49.1,29.76,WNW,285,0.0,0.0,28,0.00,,,0.00,Wunderground v.1.15,2013-07-18 10:36:00,
2013-07-18 03:41:00,85.5,53.1,29.76,WNW,288,0.0,0.0,33,0.00,,,0.00,Wunderground v.1.15,2013-07-18 10:41:00,
2013-07-18 03:46:00,85.1,59.4,29.76,WNW,288,0.0,1.0,42,0.00,,,0.00,Wunderground v.1.15,2013-07-18 10:46:00,
2013-07-18 03:51:00,84.1,59.2,29.76,WNW,300,0.0,0.0,43,0.00,,,0.00,Wunderground v.1.15,2013-07-18 10:51:00,
2013-07-18 03:56:00,83.1,59.6,29.76,North,359,1.0,2.0,45,0.00,,,0.00,Wunderground v.1.15,2013-07-18 10:56:00,
2013-07-18 04:02:00,81.9,59.7,29.76,North,9,2.0,2.0,47,0.00,,,0.00,Wunderground v.1.15,2013-07-18 11:02:00,
2013-07-18 04:07:00,81.0,58.3,29.76,ENE,68,0.0,2.0,46,0.00,,,0.00,Wunderground v.1.15,2013-07-18 11:07:00,
2013-07-18 04:12:00,81.2,57.2,29.76,ENE,76,0.0,0.0,44,0.00,,,0.00,Wunderground v.1.15,2013-07-18 11:12:00,
2013-07-18 04:17:00,82.1,55.4,29.76,ENE,75,0.0,1.0,40,0.00,,,0.00,Wunderground v.1.15,2013-07-18 11:17:00,
2013-07-18 04:22:00,82.7,56.6,29.77,ENE,75,0.0,0.0,41,0.00,,,0.00,Wunderground v.1.15,2013-07-18 11:22:00,
2013-07-18 04:27:00,82.5,55.0,29.77,ENE,75,0.0,0.0,39,0.00,,,0.00,Wunderground v.1.15,2013-07-18 11:27:00,
2013-07-18 04:32:00,82.9,54.7,29.77,ENE,75,0.0,0.0,38,0.00,,,0.00,Wunderground v.1.15,2013-07-18 11:32:00,
2013-07-18 04:37:00,83.6,55.3,29.77,ENE,75,0.0,1.0,38,0.00,,,0.00,Wunderground v.1.15,2013-07-18 11:37:00,
2013-07-18 04:42:00,84.1,55.0,29.77,ENE,75,0.0,0.0,37,0.00,,,0.00,Wunderground v.1.15,2013-07-18 11:42:00,
2013-07-18 04:47:00,84.8,53.3,29.77,ENE,77,0.0,0.0,34,0.00,,,0.00,Wunderground v.1.15,2013-07-18 11:47:00,
2013-07-18 04:52:00,85.1,52.8,29.77,ENE,76,0.0,0.0,33,0.00,,,0.00,Wunderground v.1.15,2013-07-18 11:52:00,
2013-07-18 04:57:00,84.0,59.1,29.77,ENE,76,0.0,1.0,43,0.00,,,0.00,Wunderground v.1.15,2013-07-18 11:57:00,
2013-07-18 05:02:00,83.0,55.5,29.77,ENE,76,0.0,0.0,39,0.00,,,0.00,Wunderground v.1.15,2013-07-18 12:02:00,
2013-07-18 05:07:00,83.2,55.0,29.78,ENE,77,0.0,0.0,38,0.00,,,0.00,Wunderground v.1.15,2013-07-18 12:07:00,
2013-07-18 05:12:00,83.2,55.0,29.78,ENE,76,0.0,0.0,38,0.00,,,0.00,Wunderground v.1.15,2013-07-18 12:12:00,
2013-07-18 05:17:00,83.0,60.1,29.78,West,280,1.0,1.0,46,0.00,,,0.00,Wunderground v.1.15,2013-07-18 12:17:00,
2013-07-18 05:22:00,81.7,58.3,29.78,WNW,288,1.0,2.0,45,0.00,,,0.00,Wunderground v.1.15,2013-07-18 12:22:00,
2013-07-18 05:27:00,80.8,56.9,29.79,NNW,331,0.0,2.0,44,0.00,,,0.00,Wunderground v.1.15,2013-07-18 12:27:00,
2013-07-18 05:32:00,80.2,56.9,29.79,NNW,332,0.0,1.0,45,0.00,,,0.00,Wunderground v.1.15,2013-07-18 12:32:00,
2013-07-18 05:37:00,79.6,57.6,29.79,NNW,332,0.0,1.0,47,0.00,,,0.00,Wunderground v.1.15,2013-07-18 12:37:00,
2013-07-18 05:42:00,79.3,57.3,29.79,North,350,1.0,2.0,47,0.00,,,0.00,Wunderground v.1.15,2013-07-18 12:42:00,
2013-07-18 05:47:00,79.1,58.9,29.79,North,352,0.0,2.0,50,0.00,,,0.00,Wunderground v.1.15,2013-07-18 12:47:00,
2013-07-18 05:52:00,78.6,58.4,29.79,North,353,0.0,1.0,50,0.00,,,0.00,Wunderground v.1.15,2013-07-18 12:52:00,
2013-07-18 05:57:00,78.6,58.4,29.80,North,353,0.0,1.0,50,0.00,,,0.00,Wunderground v.1.15,2013-07-18 12:57:00,
2013-07-18 06:02:00,78.9,58.7,29.80,North,353,0.0,0.0,50,0.00,,,0.00,Wunderground v.1.15,2013-07-18 13:02:00,
2013-07-18 06:07:00,79.0,59.3,29.80,North,353,0.0,0.0,51,0.00,,,0.00,Wunderground v.1.15,2013-07-18 13:07:00,
2013-07-18 06:12:00,79.2,57.2,29.80,North,353,0.0,0.0,47,0.00,,,0.00,Wunderground v.1.15,2013-07-18 13:12:00,
2013-07-18 06:17:00,79.6,57.6,29.80,North,353,0.0,1.0,47,0.00,,,0.00,Wunderground v.1.15,2013-07-18 13:17:00,
2013-07-18 06:22:00,80.3,58.8,29.80,WSW,249,0.0,0.0,48,0.00,,,0.00,Wunderground v.1.15,2013-07-18 13:22:00,
2013-07-18 06:27:00,80.9,57.6,29.80,WSW,249,0.0,1.0,45,0.00,,,0.00,Wunderground v.1.15,2013-07-18 13:27:00,
2013-07-18 06:33:00,82.5,57.7,29.80,ESE,108,0.0,1.0,43,0.00,,,0.00,Wunderground v.1.15,2013-07-18 13:33:00,
2013-07-18 06:38:00,83.5,59.9,29.80,ESE,108,0.0,1.0,45,0.00,,,0.00,Wunderground v.1.15,2013-07-18 13:38:00,
2013-07-18 06:43:00,83.6,63.6,29.80,ESE,107,0.0,0.0,51,0.00,,,0.00,Wunderground v.1.15,2013-07-18 13:43:00,
2013-07-18 06:48:00,83.2,60.9,29.80,ESE,108,0.0,0.0,47,0.00,,,0.00,Wunderground v.1.15,2013-07-18 13:48:00,
2013-07-18 06:53:00,83.7,58.8,29.80,ESE,107,0.0,0.0,43,0.00,,,0.00,Wunderground v.1.15,2013-07-18 13:53:00,
2013-07-18 06:58:00,85.3,58.9,29.81,ESE,108,0.0,0.0,41,0.00,,,0.00,Wunderground v.1.15,2013-07-18 13:58:00,
2013-07-18 07:03:00,86.0,62.2,29.81,ESE,107,0.0,0.0,45,0.00,,,0.00,Wunderground v.1.15,2013-07-18 14:03:00,
2013-07-18 07:08:00,85.2,63.9,29.81,NNE,30,0.0,1.0,49,0.00,,,0.00,Wunderground v.1.15,2013-07-18 14:08:00,
2013-07-18 07:13:00,85.0,61.3,29.81,NNE,30,0.0,0.0,45,0.00,,,0.00,Wunderground v.1.15,2013-07-18 14:13:00,
2013-07-18 07:18:00,85.6,61.2,29.81,NNE,30,0.0,1.0,44,0.00,,,0.00,Wunderground v.1.15,2013-07-18 14:18:00,
2013-07-18 07:23:00,86.0,62.8,29.82,NNW,328,0.0,1.0,46,0.00,,,0.00,Wunderground v.1.15,2013-07-18 14:23:00,
2013-07-18 07:28:00,86.3,63.7,29.82,NW,305,0.0,1.0,47,0.00,,,0.00,Wunderground v.1.15,2013-07-18 14:28:00,
2013-07-18 07:33:00,86.4,66.7,29.82,NW,321,0.0,1.0,52,0.00,,,0.00,Wunderground v.1.15,2013-07-18 14:33:00,
2013-07-18 07:38:00,86.3,66.6,29.82,NNW,341,1.0,2.0,52,0.00,,,0.00,Wunderground v.1.15,2013-07-18 14:38:00,
2013-07-18 07:43:00,86.6,64.0,29.82,NNW,342,0.0,1.0,47,0.00,,,0.00,Wunderground v.1.15,2013-07-18 14:43:00,
2013-07-18 07:48:00,87.1,63.8,29.82,WNW,301,0.0,1.0,46,0.00,,,0.00,Wunderground v.1.15,2013-07-18 14:48:00,
2013-07-18 07:53:00,87.4,62.8,29.82,West,260,0.0,1.0,44,0.00,,,0.00,Wunderground v.1.15,2013-07-18 14:53:00,
2013-07-18 07:58:00,87.7,61.8,29.82,West,260,0.0,1.0,42,0.00,,,0.00,Wunderground v.1.15,2013-07-18 14:58:00,
2013-07-18 08:03:00,87.9,61.9,29.83,WNW,297,0.0,2.0,42,0.00,,,0.00,Wunderground v.1.15,2013-07-18 15:03:00,
2013-07-18 08:08:00,88.6,61.9,29.83,WNW,301,0.0,2.0,41,0.00,,,0.00,Wunderground v.1.15,2013-07-18 15:08:00,
2013-07-18 08:13:00,89.2,61.7,29.83,NNW,341,1.0,3.0,40,0.00,,,0.00,Wunderground v.1.15,2013-07-18 15:13:00,
2013-07-18 08:18:00,89.9,63.0,29.83,NW,326,2.0,3.0,41,0.00,,,0.00,Wunderground v.1.15,2013-07-18 15:18:00,
2013-07-18 08:23:00,90.3,64.1,29.83,NNW,343,1.0,3.0,42,0.00,,,0.00,Wunderground v.1.15,2013-07-18 15:23:00,
2013-07-18 08:28:00,91.3,65.0,29.82,NW,311,1.0,3.0,42,0.00,,,0.00,Wunderground v.1.15,2013-07-18 15:28:00,
2013-07-18 08:33:00,92.4,66.7,29.82,WNW,290,1.0,2.0,43,0.00,,,0.00,Wunderground v.1.15,2013-07-18 15:33:00,
2013-07-18 08:38:00,93.2,66.0,29.82,NW,319,3.0,4.0,41,0.00,,,0.00,Wunderground v.1.15,2013-07-18 15:38:00,
2013-07-18 08:43:00,93.5,67.0,29.82,NW,319,2.0,4.0,42,0.00,,,0.00,Wunderground v.1.15,2013-07-18 15:43:00,
2013-07-18 08:48:00,93.9,68.7,29.82,NW,326,2.0,4.0,44,0.00,,,0.00,Wunderground v.1.15,2013-07-18 15:48:00,
2013-07-18 08:54:00,94.1,66.1,29.82,NNW,344,2.0,4.0,40,0.00,,,0.00,Wunderground v.1.15,2013-07-18 15:54:00,
2013-07-18 08:59:00,94.8,65.2,29.82,North,8,4.0,5.0,38,0.00,,,0.00,Wunderground v.1.15,2013-07-18 15:59:00,
2013-07-18 09:04:00,94.7,65.1,29.82,NW,312,2.0,5.0,38,0.00,,,0.00,Wunderground v.1.15,2013-07-18 16:04:00,
2013-07-18 09:09:00,94.6,69.3,29.82,NW,316,2.0,5.0,44,0.00,,,0.00,Wunderground v.1.15,2013-07-18 16:09:00,
2013-07-18 09:14:00,95.1,67.0,29.82,NW,312,1.0,3.0,40,0.00,,,0.00,Wunderground v.1.15,2013-07-18 16:14:00,
2013-07-18 09:19:00,95.6,70.2,29.82,WNW,295,1.0,3.0,44,0.00,,,0.00,Wunderground v.1.15,2013-07-18 16:19:00,
2013-07-18 09:24:00,96.2,68.0,29.82,NW,312,2.0,3.0,40,0.00,,,0.00,Wunderground v.1.15,2013-07-18 16:24:00,
2013-07-18 09:29:00,96.7,68.4,29.82,NW,316,2.0,3.0,40,0.00,,,0.00,Wunderground v.1.15,2013-07-18 16:29:00,
2013-07-18 09:34:00,97.1,68.8,29.82,WNW,300,2.0,3.0,40,0.00,,,0.00,Wunderground v.1.15,2013-07-18 16:34:00,
2013-07-18 09:39:00,97.0,69.4,29.82,WNW,284,2.0,4.0,41,0.00,,,0.00,Wunderground v.1.15,2013-07-18 16:39:00,
2013-07-18 09:44:00,97.1,71.6,29.81,WNW,303,3.0,3.0,44,0.00,,,0.00,Wunderground v.1.15,2013-07-18 16:44:00,
2013-07-18 09:49:00,97.4,70.5,29.81,WNW,292,3.0,5.0,42,0.00,,,0.00,Wunderground v.1.15,2013-07-18 16:49:00,
2013-07-18 09:54:00,97.6,73.3,29.81,West,271,3.0,3.0,46,0.00,,,0.00,Wunderground v.1.15,2013-07-18 16:54:00,
2013-07-18 09:59:00,97.8,74.8,29.81,WSW,239,2.0,4.0,48,0.00,,,0.00,Wunderground v.1.15,2013-07-18 16:59:00,
2013-07-18 10:04:00,97.8,72.9,29.81,West,273,3.0,4.0,45,0.00,,,0.00,Wunderground v.1.15,2013-07-18 17:04:00,
2013-07-18 10:09:00,97.2,73.0,29.81,West,273,4.0,6.0,46,0.00,,,0.00,Wunderground v.1.15,2013-07-18 17:09:00,
2013-07-18 10:14:00,97.0,74.1,29.81,WNW,285,5.0,6.0,48,0.00,,,0.00,Wunderground v.1.15,2013-07-18 17:14:00,
2013-07-18 10:19:00,97.5,73.9,29.81,West,273,4.0,6.0,47,0.00,,,0.00,Wunderground v.1.15,2013-07-18 17:19:00,
2013-07-18 10:24:00,98.0,71.0,29.80,WSW,258,3.0,6.0,42,0.00,,,0.00,Wunderground v.1.15,2013-07-18 17:24:00,
2013-07-18 10:29:00,98.3,69.8,29.80,WNW,303,4.0,7.0,40,0.00,,,0.00,Wunderground v.1.15,2013-07-18 17:29:00,
2013-07-18 10:34:00,98.6,71.5,29.80,West,259,5.0,7.0,42,0.00,,,0.00,Wunderground v.1.15,2013-07-18 17:34:00,
2013-07-18 10:39:00,98.8,71.0,29.81,NW,309,4.0,7.0,41,0.00,,,0.00,Wunderground v.1.15,2013-07-18 17:39:00,
2013-07-18 10:44:00,99.2,68.4,29.80,West,267,5.0,7.0,37,0.00,,,0.00,Wunderground v.1.15,2013-07-18 17:44:00,
2013-07-18 10:49:00,99.3,71.4,29.80,West,279,7.0,7.0,41,0.00,,,0.00,Wunderground v.1.15,2013-07-18 17:49:00,
2013-07-18 10:54:00,99.6,69.5,29.80,WSW,246,4.0,6.0,38,0.00,,,0.00,Wunderground v.1.15,2013-07-18 17:54:00,
2013-07-18 10:59:00,100.1,69.9,29.80,WSW,241,5.0,6.0,38,0.00,,,0.00,Wunderground v.1.15,2013-07-18 17:59:00,
2013-07-18 11:04:00,100.2,72.3,29.80,WNW,293,4.0,5.0,41,0.00,,,0.00,Wunderground v.1.15,2013-07-18 18:04:00,
2013-07-18 11:09:00,100.7,69.7,29.80,West,273,4.0,6.0,37,0.00,,,0.00,Wunderground v.1.15,2013-07-18 18:09:00,
2013-07-18 11:14:00,100.7,70.5,29.80,WNW,300,4.0,6.0,38,0.00,,,0.00,Wunderground v.1.15,2013-07-18 18:14:00,
2013-07-18 11:19:00,101.1,69.2,29.80,West,265,5.0,6.0,36,0.00,,,0.00,Wunderground v.1.15,2013-07-18 18:19:00,
2013-07-18 11:24:00,101.0,72.2,29.80,WNW,285,5.0,7.0,40,0.00,,,0.00,Wunderground v.1.15,2013-07-18 18:24:00,
2013-07-18 11:29:00,100.9,70.6,29.79,West,269,7.0,7.0,38,0.00,,,0.00,Wunderground v.1.15,2013-07-18 18:29:00,
2013-07-18 11:34:00,101.1,70.8,29.79,SW,215,5.0,7.0,38,0.00,,,0.00,Wunderground v.1.15,2013-07-18 18:34:00,
2013-07-18 11:39:00,101.7,70.6,29.79,WSW,238,5.0,7.0,37,0.00,,,0.00,Wunderground v.1.15,2013-07-18 18:39:00,
2013-07-18 11:44:00,101.7,72.9,29.78,West,269,6.0,7.0,40,0.00,,,0.00,Wunderground v.1.15,2013-07-18 18:44:00,
2013-07-18 11:49:00,101.7,69.7,29.78,WNW,293,6.0,9.0,36,0.00,,,0.00,Wunderground v.1.15,2013-07-18 18:49:00,
2013-07-18 11:54:00,102.4,65.1,29.78,West,273,7.0,11.0,30,0.00,,,0.00,Wunderground v.1.15,2013-07-18 18:54:00,
2013-07-18 11:59:00,102.7,68.1,29.78,West,281,3.0,11.0,33,0.00,,,0.00,Wunderground v.1.15,2013-07-18 18:59:00,
2013-07-18 12:04:00,102.7,72.2,29.78,West,281,5.0,7.0,38,0.00,,,0.00,Wunderground v.1.15,2013-07-18 19:04:00,
2013-07-18 12:09:00,102.7,68.1,29.78,West,270,6.0,7.0,33,0.00,,,0.00,Wunderground v.1.15,2013-07-18 19:09:00,
2013-07-18 12:14:00,102.7,70.6,29.78,WNW,295,6.0,8.0,36,0.00,,,0.00,Wunderground v.1.15,2013-07-18 19:14:00,
2013-07-18 12:19:00,102.9,68.3,29.78,West,274,6.0,8.0,33,0.00,,,0.00,Wunderground v.1.15,2013-07-18 19:19:00,
2013-07-18 12:25:00,103.1,66.6,29.78,WNW,298,6.0,6.0,31,0.00,,,0.00,Wunderground v.1.15,2013-07-18 19:25:00,
2013-07-18 12:30:00,103.4,66.9,29.77,West,276,3.0,5.0,31,0.00,,,0.00,Wunderground v.1.15,2013-07-18 19:30:00,
2013-07-18 12:35:00,103.6,73.0,29.77,WNW,295,5.0,7.0,38,0.00,,,0.00,Wunderground v.1.15,2013-07-18 19:35:00,
2013-07-18 12:40:00,104.2,64.6,29.77,West,260,5.0,5.0,28,0.00,,,0.00,Wunderground v.1.15,2013-07-18 19:40:00,
2013-07-18 12:45:00,104.9,67.2,29.77,WNW,291,2.0,6.0,30,0.00,,,0.00,Wunderground v.1.15,2013-07-18 19:45:00,
2013-07-18 12:50:00,104.7,72.4,29.77,SW,235,5.0,7.0,36,0.00,,,0.00,Wunderground v.1.15,2013-07-18 19:50:00,
2013-07-18 12:55:00,104.4,66.8,29.76,West,263,8.0,8.0,30,0.00,,,0.00,Wunderground v.1.15,2013-07-18 19:55:00,
2013-07-18 13:00:00,104.6,66.0,29.76,West,266,7.0,9.0,29,0.00,,,0.00,Wunderground v.1.15,2013-07-18 20:00:00,
2013-07-18 13:05:00,104.9,66.2,29.76,WNW,291,6.0,9.0,29,0.00,,,0.00,Wunderground v.1.15,2013-07-18 20:05:00,
2013-07-18 13:10:00,105.2,66.5,29.75,West,263,7.0,7.0,29,0.00,,,0.00,Wunderground v.1.15,2013-07-18 20:10:00,
2013-07-18 13:15:00,104.6,68.8,29.75,WNW,283,2.0,8.0,32,0.00,,,0.00,Wunderground v.1.15,2013-07-18 20:15:00,
2013-07-18 13:20:00,105.0,71.8,29.75,West,280,6.0,7.0,35,0.00,,,0.00,Wunderground v.1.15,2013-07-18 20:20:00,
2013-07-18 13:25:00,105.5,65.7,29.75,West,264,7.0,9.0,28,0.00,,,0.00,Wunderground v.1.15,2013-07-18 20:25:00,
2013-07-18 13:30:00,106.0,62.9,29.75,West,264,5.0,7.0,25,0.00,,,0.00,Wunderground v.1.15,2013-07-18 20:30:00,
2013-07-18 13:35:00,106.2,63.1,29.74,WSW,239,6.0,10.0,25,0.00,,,0.00,Wunderground v.1.15,2013-07-18 20:35:00,
2013-07-18 13:40:00,105.5,68.7,29.74,WNW,302,3.0,9.0,31,0.00,,,0.00,Wunderground v.1.15,2013-07-18 20:40:00,
2013-07-18 13:45:00,104.8,72.5,29.74,WNW,283,4.0,9.0,36,0.00,,,0.00,Wunderground v.1.15,2013-07-18 20:45:00,
2013-07-18 13:50:00,105.0,70.1,29.74,West,260,6.0,8.0,33,0.00,,,0.00,Wunderground v.1.15,2013-07-18 20:50:00,
2013-07-18 13:55:00,105.5,72.2,29.74,WNW,284,6.0,8.0,35,0.00,,,0.00,Wunderground v.1.15,2013-07-18 20:55:00,
2013-07-18 14:00:00,105.2,72.8,29.73,West,270,4.0,5.0,36,0.00,,,0.00,Wunderground v.1.15,2013-07-18 21:00:00,
2013-07-18 14:06:00,105.2,69.3,29.73,WNW,294,4.0,9.0,32,0.00,,,0.00,Wunderground v.1.15,2013-07-18 21:06:00,
2013-07-18 14:11:00,105.1,72.7,29.73,NW,321,4.0,9.0,36,0.00,,,0.00,Wunderground v.1.15,2013-07-18 21:11:00,
2013-07-18 14:16:00,105.3,69.4,29.73,NW,316,6.0,10.0,32,0.00,,,0.00,Wunderground v.1.15,2013-07-18 21:16:00,
2013-07-18 14:21:00,105.1,67.4,29.72,NW,306,3.0,6.0,30,0.00,,,0.00,Wunderground v.1.15,2013-07-18 21:21:00,
2013-07-18 14:26:00,105.3,73.7,29.72,WNW,287,5.0,9.0,37,0.00,,,0.00,Wunderground v.1.15,2013-07-18 21:26:00,
2013-07-18 14:31:00,105.7,73.3,29.71,West,269,5.0,6.0,36,0.00,,,0.00,Wunderground v.1.15,2013-07-18 21:31:00,
2013-07-18 14:36:00,105.2,64.4,29.71,WNW,284,6.0,10.0,27,0.00,,,0.00,Wunderground v.1.15,2013-07-18 21:36:00,
2013-07-18 14:41:00,105.3,69.4,29.71,WNW,285,3.0,6.0,32,0.00,,,0.00,Wunderground v.1.15,2013-07-18 21:41:00,
2013-07-18 14:46:00,105.5,73.1,29.70,WNW,295,6.0,8.0,36,0.00,,,0.00,Wunderground v.1.15,2013-07-18 21:46:00,
2013-07-18 14:51:00,105.7,67.9,29.70,WNW,293,4.0,5.0,30,0.00,,,0.00,Wunderground v.1.15,2013-07-18 21:51:00,
2013-07-18 14:56:00,105.7,72.4,29.70,NW,316,5.0,7.0,35,0.00,,,0.00,Wunderground v.1.15,2013-07-18 21:56:00,
2013-07-18 15:01:00,105.5,73.9,29.70,West,281,5.0,7.0,37,0.00,,,0.00,Wunderground v.1.15,2013-07-18 22:01:00,
2013-07-18 15:06:00,105.0,72.6,29.69,West,275,4.0,7.0,36,0.00,,,0.00,Wunderground v.1.15,2013-07-18 22:06:00,
2013-07-18 15:11:00,104.6,72.3,29.69,WNW,284,5.0,8.0,36,0.00,,,0.00,Wunderground v.1.15,2013-07-18 22:11:00,
2013-07-18 15:16:00,105.0,66.3,29.69,WNW,299,4.0,8.0,29,0.00,,,0.00,Wunderground v.1.15,2013-07-18 22:16:00,
2013-07-18 15:21:00,105.4,71.3,29.68,WNW,302,6.0,6.0,34,0.00,,,0.00,Wunderground v.1.15,2013-07-18 22:21:00,
2013-07-18 15:26:00,105.6,72.3,29.68,WNW,292,4.0,8.0,35,0.00,,,0.00,Wunderground v.1.15,2013-07-18 22:26:00,
2013-07-18 15:31:00,105.7,70.7,29.68,WNW,287,3.0,5.0,33,0.00,,,0.00,Wunderground v.1.15,2013-07-18 22:31:00,
2013-07-18 15:36:00,106.0,71.8,29.68,NW,315,3.0,6.0,34,0.00,,,0.00,Wunderground v.1.15,2013-07-18 22:36:00,
2013-07-18 15:41:00,105.9,70.0,29.67,NW,310,6.0,7.0,32,0.00,,,0.00,Wunderground v.1.15,2013-07-18 22:41:00,
2013-07-18 15:46:00,106.0,71.8,29.67,West,261,3.0,7.0,34,0.00,,,0.00,Wunderground v.1.15,2013-07-18 22:46:00,
2013-07-18 15:51:00,105.3,72.9,29.67,WNW,293,3.0,8.0,36,0.00,,,0.00,Wunderground v.1.15,2013-07-18 22:51:00,
2013-07-18 15:56:00,105.9,72.6,29.67,West,278,4.0,8.0,35,0.00,,,0.00,Wunderground v.1.15,2013-07-18 22:56:00,
2013-07-18 16:01:00,105.6,71.5,29.67,WNW,290,4.0,6.0,34,0.00,,,0.00,Wunderground v.1.15,2013-07-18 23:01:00,
2013-07-18 16:06:00,106.3,70.3,29.66,WSW,255,4.0,7.0,32,0.00,,,0.00,Wunderground v.1.15,2013-07-18 23:06:00,
2013-07-18 16:12:00,106.5,69.5,29.66,West,259,4.0,5.0,31,0.00,,,0.00,Wunderground v.1.15,2013-07-18 23:12:00,
2013-07-18 16:17:00,106.7,71.6,29.66,NW,307,6.0,6.0,33,0.00,,,0.00,Wunderground v.1.15,2013-07-18 23:17:00,
2013-07-18 16:22:00,106.0,73.5,29.66,NW,314,5.0,6.0,36,0.00,,,0.00,Wunderground v.1.15,2013-07-18 23:22:00,
2013-07-18 16:27:00,106.3,72.9,29.66,NW,315,1.0,6.0,35,0.00,,,0.00,Wunderground v.1.15,2013-07-18 23:27:00,
2013-07-18 16:32:00,106.6,72.3,29.66,WNW,298,2.0,5.0,34,0.00,,,0.00,Wunderground v.1.15,2013-07-18 23:32:00,
2013-07-18 16:37:00,106.6,69.6,29.66,NW,307,3.0,5.0,31,0.00,,,0.00,Wunderground v.1.15,2013-07-18 23:37:00,
2013-07-18 16:42:00,106.9,70.8,29.66,NW,306,3.0,6.0,32,0.00,,,0.00,Wunderground v.1.15,2013-07-18 23:42:00,
2013-07-18 16:47:00,107.1,70.1,29.65,WNW,286,4.0,6.0,31,0.00,,,0.00,Wunderground v.1.15,2013-07-18 23:47:00,
2013-07-18 16:52:00,106.8,69.8,29.65,NW,311,2.0,5.0,31,0.00,,,0.00,Wunderground v.1.15,2013-07-18 23:52:00,
2013-07-18 16:57:00,107.1,65.0,29.65,WNW,297,3.0,5.0,26,0.00,,,0.00,Wunderground v.1.15,2013-07-18 23:57:00,
2013-07-18 17:02:00,107.9,65.6,29.65,WNW,298,3.0,3.0,26,0.00,,,0.00,Wunderground v.1.15,2013-07-19 00:02:00,
2013-07-18 17:07:00,108.6,65.1,29.65,WSW,252,3.0,4.0,25,0.00,,,0.00,Wunderground v.1.15,2013-07-19 00:07:00,
2013-07-18 17:12:00,109.0,66.6,29.65,WNW,285,3.0,3.0,26,0.00,,,0.00,Wunderground v.1.15,2013-07-19 00:12:00,
2013-07-18 17:17:00,109.1,63.1,29.65,WNW,300,2.0,3.0,23,0.00,,,0.00,Wunderground v.1.15,2013-07-19 00:17:00,
2013-07-18 17:22:00,108.8,66.4,29.65,WNW,284,2.0,3.0,26,0.00,,,0.00,Wunderground v.1.15,2013-07-19 00:22:00,
2013-07-18 17:27:00,108.5,69.3,29.65,WSW,255,2.0,4.0,29,0.00,,,0.00,Wunderground v.1.15,2013-07-19 00:27:00,
2013-07-18 17:32:00,108.2,70.0,29.65,NW,313,3.0,5.0,30,0.00,,,0.00,Wunderground v.1.15,2013-07-19 00:32:00,
2013-07-18 17:37:00,108.0,68.9,29.65,WNW,301,3.0,5.0,29,0.00,,,0.00,Wunderground v.1.15,2013-07-19 00:37:00,
2013-07-18 17:42:00,108.1,64.7,29.64,WNW,303,3.0,4.0,25,0.00,,,0.00,Wunderground v.1.15,2013-07-19 00:42:00,
2013-07-18 17:47:00,108.3,66.0,29.64,WNW,285,2.0,4.0,26,0.00,,,0.00,Wunderground v.1.15,2013-07-19 00:47:00,
2013-07-18 17:52:00,108.4,69.2,29.64,WNW,284,0.0,3.0,29,0.00,,,0.00,Wunderground v.1.15,2013-07-19 00:52:00,
2013-07-18 17:58:00,108.9,66.5,29.64,NW,315,3.0,3.0,26,0.00,,,0.00,Wunderground v.1.15,2013-07-19 00:58:00,
2013-07-18 18:03:00,107.9,64.5,29.64,NW,304,2.0,3.0,25,0.00,,,0.00,Wunderground v.1.15,2013-07-19 01:03:00,
2013-07-18 18:08:00,108.3,64.8,29.64,West,263,1.0,3.0,25,0.00,,,0.00,Wunderground v.1.15,2013-07-19 01:08:00,
2013-07-18 18:13:00,109.1,59.2,29.64,WNW,285,0.0,2.0,20,0.00,,,0.00,Wunderground v.1.15,2013-07-19 01:13:00,
2013-07-18 18:18:00,109.3,63.3,29.64,WNW,297,1.0,3.0,23,0.00,,,0.00,Wunderground v.1.15,2013-07-19 01:18:00,
2013-07-18 18:23:00,108.9,64.2,29.64,WNW,283,2.0,3.0,24,0.00,,,0.00,Wunderground v.1.15,2013-07-19 01:23:00,
2013-07-18 18:28:00,108.5,62.6,29.64,WNW,294,1.0,3.0,23,0.00,,,0.00,Wunderground v.1.15,2013-07-19 01:28:00,
2013-07-18 18:33:00,108.6,58.8,29.65,WNW,291,1.0,2.0,20,0.00,,,0.00,Wunderground v.1.15,2013-07-19 01:33:00,
2013-07-18 18:38:00,108.8,60.3,29.65,WNW,283,2.0,2.0,21,0.00,,,0.00,Wunderground v.1.15,2013-07-19 01:38:00,
2013-07-18 18:43:00,108.6,61.4,29.65,West,267,2.0,2.0,22,0.00,,,0.00,Wunderground v.1.15,2013-07-19 01:43:00,
2013-07-18 18:48:00,107.9,60.9,29.65,West,277,2.0,3.0,22,0.00,,,0.00,Wunderground v.1.15,2013-07-19 01:48:00,
2013-07-18 18:53:00,108.0,59.6,29.65,West,277,2.0,3.0,21,0.00,,,0.00,Wunderground v.1.15,2013-07-19 01:53:00,
2013-07-18 18:58:00,107.7,59.4,29.65,West,281,2.0,3.0,21,0.00,,,0.00,Wunderground v.1.15,2013-07-19 01:58:00,
2013-07-18 19:03:00,108.0,58.3,29.65,West,281,1.0,2.0,20,0.00,,,0.00,Wunderground v.1.15,2013-07-19 02:03:00,
2013-07-18 19:08:00,108.3,61.2,29.65,WNW,284,0.0,2.0,22,0.00,,,0.00,Wunderground v.1.15,2013-07-19 02:08:00,
2013-07-18 19:13:00,108.2,59.8,29.65,West,280,1.0,1.0,21,0.00,,,0.00,Wunderground v.1.15,2013-07-19 02:13:00,
2013-07-18 19:18:00,108.0,60.9,29.65,West,274,0.0,1.0,22,0.00,,,0.00,Wunderground v.1.15,2013-07-19 02:18:00,
2013-07-18 19:23:00,107.9,60.9,29.65,NNW,335,0.0,1.0,22,0.00,,,0.00,Wunderground v.1.15,2013-07-19 02:23:00,
2013-07-18 19:28:00,106.8,69.8,29.65,NW,316,0.0,1.0,31,0.00,,,0.00,Wunderground v.1.15,2013-07-19 02:28:00,
2013-07-18 19:33:00,106.1,63.0,29.66,West,271,0.0,0.0,25,0.00,,,0.00,Wunderground v.1.15,2013-07-19 02:33:00,
2013-07-18 19:38:00,106.2,61.9,29.66,West,271,0.0,0.0,24,0.00,,,0.00,Wunderground v.1.15,2013-07-19 02:38:00,
2013-07-18 19:43:00,106.2,60.7,29.66,West,278,0.0,0.0,23,0.00,,,0.00,Wunderground v.1.15,2013-07-19 02:43:00,
2013-07-18 19:48:00,106.1,60.6,29.66,West,278,0.0,0.0,23,0.00,,,0.00,Wunderground v.1.15,2013-07-19 02:48:00,
2013-07-18 19:53:00,105.8,60.4,29.66,WSW,252,0.0,0.0,23,0.00,,,0.00,Wunderground v.1.15,2013-07-19 02:53:00,
2013-07-18 19:58:00,105.8,60.4,29.66,WSW,246,0.0,1.0,23,0.00,,,0.00,Wunderground v.1.15,2013-07-19 02:58:00,
2013-07-18 20:03:00,105.8,60.4,29.66,WSW,246,0.0,0.0,23,0.00,,,0.00,Wunderground v.1.15,2013-07-19 03:03:00,
2013-07-18 20:08:00,105.7,57.7,29.66,WSW,246,0.0,0.0,21,0.00,,,0.00,Wunderground v.1.15,2013-07-19 03:08:00,
2013-07-18 20:13:00,105.6,60.2,29.66,WSW,245,0.0,0.0,23,0.00,,,0.00,Wunderground v.1.15,2013-07-19 03:13:00,
2013-07-18 20:18:00,105.6,61.4,29.66,WSW,246,0.0,0.0,24,0.00,,,0.00,Wunderground v.1.15,2013-07-19 03:18:00,
2013-07-18 20:23:00,105.3,58.7,29.66,WSW,246,0.0,0.0,22,0.00,,,0.00,Wunderground v.1.15,2013-07-19 03:23:00,
2013-07-18 20:28:00,105.0,57.2,29.66,WSW,246,0.0,0.0,21,0.00,,,0.00,Wunderground v.1.15,2013-07-19 03:28:00,
2013-07-18 20:34:00,103.9,67.3,29.67,North,356,1.0,2.0,31,0.00,,,0.00,Wunderground v.1.15,2013-07-19 03:34:00,
2013-07-18 20:39:00,102.2,61.9,29.67,NNE,22,0.0,2.0,27,0.00,,,0.00,Wunderground v.1.15,2013-07-19 03:39:00,
2013-07-18 20:44:00,101.8,61.5,29.67,NNE,23,0.0,1.0,27,0.00,,,0.00,Wunderground v.1.15,2013-07-19 03:44:00,
2013-07-18 20:49:00,101.8,61.5,29.67,NNE,23,2.0,2.0,27,0.00,,,0.00,Wunderground v.1.15,2013-07-19 03:49:00,
2013-07-18 20:54:00,101.4,70.3,29.67,NNE,12,0.0,7.0,37,0.00,,,0.00,Wunderground v.1.15,2013-07-19 03:54:00,
2013-07-18 20:59:00,99.8,69.7,29.68,NNE,14,2.0,7.0,38,0.00,,,0.00,Wunderground v.1.15,2013-07-19 03:59:00,
2013-07-18 21:01:00,99.2,66.7,29.68,North,5,5.0,7.0,35,0.00,,,0.00,Wunderground v.1.15,2013-07-19 04:01:00,
2013-07-18 21:06:00,99.6,66.2,29.68,NNE,27,4.0,7.0,34,0.00,,,0.00,Wunderground v.1.15,2013-07-19 04:06:00,
2013-07-18 21:11:00,100.3,64.2,29.68,North,352,1.0,4.0,31,0.00,,,0.00,Wunderground v.1.15,2013-07-19 04:11:00,
2013-07-18 21:16:00,100.5,62.5,29.69,NE,34,0.0,4.0,29,0.00,,,0.00,Wunderground v.1.15,2013-07-19 04:16:00,
2013-07-18 21:21:00,101.2,60.0,29.69,ESE,110,0.0,1.0,26,0.00,,,0.00,Wunderground v.1.15,2013-07-19 04:21:00,
2013-07-18 21:26:00,102.2,59.7,29.69,ESE,107,0.0,1.0,25,0.00,,,0.00,Wunderground v.1.15,2013-07-19 04:26:00,
2013-07-18 21:31:00,102.8,59.1,29.69,ESE,107,0.0,0.0,24,0.00,,,0.00,Wunderground v.1.15,2013-07-19 04:31:00,
2013-07-18 21:36:00,102.8,59.1,29.69,ESE,110,0.0,1.0,24,0.00,,,0.00,Wunderground v.1.15,2013-07-19 04:36:00,
2013-07-18 21:41:00,102.7,59.0,29.69,SSE,157,0.0,0.0,24,0.00,,,0.00,Wunderground v.1.15,2013-07-19 04:41:00,
2013-07-18 21:46:00,102.7,59.0,29.70,ESE,113,1.0,2.0,24,0.00,,,0.00,Wunderground v.1.15,2013-07-19 04:46:00,
2013-07-18 21:51:00,103.5,58.5,29.70,ESE,116,0.0,2.0,23,0.00,,,0.00,Wunderground v.1.15,2013-07-19 04:51:00,
2013-07-18 21:56:00,103.8,58.7,29.70,ESE,103,2.0,4.0,23,0.00,,,0.00,Wunderground v.1.15,2013-07-19 04:56:00,
2013-07-18 22:01:00,104.0,57.6,29.70,East,101,1.0,3.0,22,0.00,,,0.00,Wunderground v.1.15,2013-07-19 05:01:00,
2013-07-18 22:06:00,103.9,58.8,29.70,East,79,3.0,4.0,23,0.00,,,0.00,Wunderground v.1.15,2013-07-19 05:06:00,
2013-07-18 22:11:00,103.8,58.7,29.70,ESE,103,2.0,3.0,23,0.00,,,0.00,Wunderground v.1.15,2013-07-19 05:11:00,
2013-07-18 22:16:00,103.8,58.7,29.70,East,93,3.0,4.0,23,0.00,,,0.00,Wunderground v.1.15,2013-07-19 05:16:00,
2013-07-18 22:22:00,103.5,58.5,29.70,East,91,2.0,2.0,23,0.00,,,0.00,Wunderground v.1.15,2013-07-19 05:22:00,
2013-07-18 22:27:00,103.2,59.4,29.71,ESE,102,2.0,3.0,24,0.00,,,0.00,Wunderground v.1.15,2013-07-19 05:27:00,
2013-07-18 22:32:00,103.1,59.3,29.71,East,89,0.0,2.0,24,0.00,,,0.00,Wunderground v.1.15,2013-07-19 05:32:00,
2013-07-18 22:37:00,102.7,60.1,29.71,ESE,103,0.0,2.0,25,0.00,,,0.00,Wunderground v.1.15,2013-07-19 05:37:00,
2013-07-18 22:42:00,102.4,58.7,29.71,East,79,0.0,1.0,24,0.00,,,0.00,Wunderground v.1.15,2013-07-19 05:42:00,
2013-07-18 22:47:00,102.6,57.7,29.71,South,187,0.0,2.0,23,0.00,,,0.00,Wunderground v.1.15,2013-07-19 05:47:00,
2013-07-18 22:52:00,102.7,57.8,29.71,ESE,104,0.0,1.0,23,0.00,,,0.00,Wunderground v.1.15,2013-07-19 05:52:00,
2013-07-18 22:57:00,102.8,59.1,29.71,ESE,118,1.0,1.0,24,0.00,,,0.00,Wunderground v.1.15,2013-07-19 05:57:00,
2013-07-18 23:02:00,102.7,59.0,29.71,ESE,115,1.0,1.0,24,0.00,,,0.00,Wunderground v.1.15,2013-07-19 06:02:00,
2013-07-18 23:07:00,102.6,58.9,29.71,ESE,104,2.0,2.0,24,0.00,,,0.00,Wunderground v.1.15,2013-07-19 06:07:00,
2013-07-18 23:12:00,102.5,60.0,29.71,ESE,105,0.0,1.0,25,0.00,,,0.00,Wunderground v.1.15,2013-07-19 06:12:00,
2013-07-18 23:17:00,102.2,59.7,29.71,ESE,105,0.0,1.0,25,0.00,,,0.00,Wunderground v.1.15,2013-07-19 06:17:00,
2013-07-18 23:22:00,101.9,59.5,29.71,ESE,105,0.0,0.0,25,0.00,,,0.00,Wunderground v.1.15,2013-07-19 06:22:00,
2013-07-18 23:27:00,101.3,59.0,29.71,East,99,0.0,1.0,25,0.00,,,0.00,Wunderground v.1.15,2013-07-19 06:27:00,
2013-07-18 23:32:00,101.3,59.0,29.71,East,101,0.0,2.0,25,0.00,,,0.00,Wunderground v.1.15,2013-07-19 06:32:00,
2013-07-18 23:37:00,101.3,61.1,29.71,ESE,103,0.0,2.0,27,0.00,,,0.00,Wunderground v.1.15,2013-07-19 06:37:00,
2013-07-18 23:42:00,100.7,59.6,29.71,ESE,103,0.0,0.0,26,0.00,,,0.00,Wunderground v.1.15,2013-07-19 06:42:00,
2013-07-18 23:47:00,100.4,60.4,29.71,ESE,107,0.0,0.0,27,0.00,,,0.00,Wunderground v.1.15,2013-07-19 06:47:00,
2013-07-18 23:52:00,100.0,60.0,29.71,ESE,105,0.0,1.0,27,0.00,,,0.00,Wunderground v.1.15,2013-07-19 06:52:00,
2013-07-18 23:57:00,99.7,57.6,29.71,NW,324,0.0,1.0,25,0.00,,,0.00,Wunderground v.1.15,2013-07-19 06:57:00,